KU4ME Weather Reports


Display with metric or nautical units.
time (UTC)temp
F
wind
direction
speed
MPH
gust
MPH
rain 1hr
in
rain 24hr
in
rain mn
in
humidity
%
barometer
mb
20260503191006 68 182 0.0 5.0 0.00 0.00 0.00 32 1018.6
20260503184006 67 242 1.0 5.0 0.00 0.00 0.00 31 1019.0
20260503183006 67 62 3.0 7.0 0.00 0.00 0.00 30 1019.0
20260503182006 67 16 0.0 6.0 0.00 0.00 0.00 31 1019.1
20260503180005 66 240 0.0 5.0 0.00 0.00 0.00 31 1019.4
20260503175006 66 270 1.0 5.0 0.00 0.00 0.00 33 1019.6
20260503174005 66 128 0.0 0.0 0.00 0.00 0.00 35 1019.8
20260503173005 65 128 0.0 5.0 0.00 0.00 0.00 36 1019.9
20260503171005 64 248 0.0 0.0 0.00 0.00 0.00 38 1020.1
20260503151005 56 133 0.0 0.0 0.00 0.00 0.00 50 1021.3
20260503131005 44 234 0.0 0.0 0.00 0.00 0.00 94 1021.3
20260503081004 44 234 0.0 0.0 0.00 0.00 0.00 91 1018.6
20260503072004 45 234 0.0 0.0 0.00 0.00 0.00 89 1018.1
20260503055003 48 234 0.0 0.0 0.00 0.00 0.00 77 1017.7
20260503054004 48 234 0.0 0.0 0.00 0.00 0.00 76 1017.8
20260503053003 49 234 0.0 0.0 0.00 0.00 0.00 76 1017.8
20260503052003 49 234 0.0 0.0 0.00 0.00 0.00 77 1017.8
20260503051004 49 234 0.0 0.0 0.00 0.00 0.00 79 1017.8
20260503050004 49 234 0.0 0.0 0.00 0.00 0.00 79 1017.7
20260503045003 49 234 0.0 0.0 0.00 0.00 0.00 78 1017.7
20260503044007 49 234 0.0 0.0 0.00 0.00 0.00 77 1017.5
20260503043007 49 234 0.0 0.0 0.00 0.00 0.00 77 1017.4
20260503042006 49 234 0.0 0.0 0.00 0.00 0.00 76 1017.4
20260503041008 49 234 0.0 0.0 0.00 0.00 0.00 76 1017.3
20260503040007 50 234 0.0 0.0 0.00 0.00 0.00 77 1017.4
20260503034007 50 234 0.0 0.0 0.00 0.00 0.00 76 1017.4
20260503032007 50 234 0.0 0.0 0.00 0.00 0.00 73 1017.3
20260503025007 50 234 0.0 0.0 0.00 0.00 0.00 75 1017.2
20260503024007 50 234 0.0 0.0 0.00 0.00 0.00 75 1017.2
20260503023007 50 234 0.0 0.0 0.00 0.00 0.00 74 1017.0
20260503021006 50 234 0.0 0.0 0.00 0.00 0.00 72 1016.9
20260503014006 51 234 0.0 0.0 0.00 0.00 0.00 68 1016.3
20260503013006 51 234 0.0 0.0 0.00 0.00 0.00 67 1016.3
20260503012007 52 234 0.0 0.0 0.00 0.00 0.00 67 1016.2
20260503011007 52 234 0.0 0.0 0.00 0.00 0.00 66 1016.1
20260503010007 52 234 0.0 0.0 0.00 0.00 0.00 66 1015.9
20260503005007 52 234 0.0 0.0 0.00 0.00 0.00 61 1015.9
20260503004007 53 234 0.0 0.0 0.00 0.00 0.00 60 1015.8
20260503003007 54 234 0.0 0.0 0.00 0.00 0.00 59 1015.6
20260503002006 54 234 0.0 0.0 0.00 0.00 0.00 58 1015.5
20260503001006 55 234 0.0 0.0 0.00 0.00 0.00 58 1015.3
20260503000006 55 234 0.0 0.0 0.00 0.00 0.00 55 1015.1
20260502235007 56 234 0.0 0.0 0.00 0.00 0.00 51 1015.1
20260502234006 56 234 0.0 0.0 0.00 0.00 0.00 49 1015.0
20260502233006 57 234 0.0 0.0 0.00 0.00 0.00 50 1014.9
20260502232006 58 234 0.0 0.0 0.00 0.00 0.00 48 1014.8
20260502231006 58 234 0.0 0.0 0.00 0.00 0.00 47 1014.9
20260502225007 60 282 2.0 6.0 0.00 0.00 0.00 46 1014.9
20260502224007 60 167 0.0 0.0 0.00 0.00 0.00 45 1014.9
20260502223006 60 167 0.0 0.0 0.00 0.00 0.00 44 1014.8
20260502222006 61 167 0.0 6.0 0.00 0.00 0.00 43 1014.7
20260502221006 61 253 0.0 3.0 0.00 0.00 0.00 44 1014.5
20260502220006 62 253 0.0 0.0 0.00 0.00 0.00 41 1014.3
20260502215006 63 253 0.0 3.0 0.00 0.00 0.00 40 1014.2
20260502214006 64 253 0.0 0.0 0.00 0.00 0.00 37 1014.1
20260502213006 65 253 0.0 7.0 0.00 0.00 0.00 37 1014.1
20260502212006 66 246 0.0 3.0 0.00 0.00 0.00 35 1014.0
20260502211006 65 267 0.0 0.0 0.00 0.00 0.00 38 1014.1
20260502210006 65 267 1.0 7.0 0.00 0.00 0.00 36 1014.1
20260502204006 65 27 0.0 5.0 0.00 0.00 0.00 36 1014.1
20260502203006 67 32 1.0 5.0 0.00 0.00 0.00 34 1014.1
20260502202006 68 304 0.0 8.0 0.00 0.00 0.00 34 1014.1
20260502201005 67 200 0.0 5.0 0.00 0.00 0.00 36 1014.2
20260502200006 65 223 0.0 7.0 0.00 0.00 0.00 35 1014.2
20260502194006 66 226 0.0 0.0 0.00 0.00 0.00 34 1014.3
20260502193006 67 226 0.0 6.0 0.00 0.00 0.00 33 1014.3
20260502192006 66 150 0.0 0.0 0.00 0.00 0.00 34 1014.3